Date String (YYYY-MM-DD hh:mm:ss) UTC,Instrument flags,absolute air pressure of the measurement (hPa),sample flow rate (lpm),inlet stack bypass flow (lpm),air temperature of the measurement (°C),ambient temperature measured by the external sensor (°C),aerosol sample conditioner tube jacket temperature (°C),OPC LED temperature (°C),internal box temperature (°C),relative humidity of the measurement (%),span deviation,mass concentration of particles derived from Lorenz-Mie calculation of OPC scattering (μg/m³),mass concentration of particles derived from Lorenz-Mie calculation of OPC scattering (μg/m³),mass concentration of particles derived from Lorenz-Mie calculation of OPC scattering (μg/m³)
DateTimeUTC,F1_M11,P_M11,Q1_M11,Q2_M11,T1_M11,T2_M11,T3_M11,T4_M11,T5_M11,U1_M11,ZSPAN_M11,X2_M11,X0_M11,X1_M11
2024-05-17 02:00:00,SystemResetWarning,0823.1,4.99,000.00,023.7,022.4,000.0,032.0,025.4,021.0,0000.0,0003.42,0008.73,0002.65
2024-05-17 02:01:00,SystemResetWarning,0823.1,5.00,000.00,023.8,022.7,000.0,032.0,025.5,020.9,0000.0,0003.45,0008.54,0002.66
2024-05-17 02:02:00,SystemResetWarning,0823.1,5.00,000.00,023.8,023.0,000.0,032.0,025.6,020.6,0000.0,0003.45,0008.22,0002.66
2024-05-17 02:03:00,SystemResetWarning,0823.1,5.01,000.00,023.9,023.2,000.0,032.0,025.8,020.4,0000.0,0003.49,0009.23,0002.69
2024-05-17 02:04:00,SystemResetWarning,0823.1,5.00,000.00,024.0,023.5,000.0,032.0,026.0,020.4,0000.0,0003.52,0009.04,0002.70
2024-05-17 02:05:00,SystemResetWarning,0823.1,4.99,000.00,024.1,023.6,000.0,032.1,026.1,020.3,0000.0,0003.54,0009.17,0002.72
2024-05-17 02:06:00,SystemResetWarning,0823.1,5.00,000.00,024.2,023.8,000.0,032.1,026.2,020.2,0000.0,0003.55,0009.41,0002.74
2024-05-17 02:07:00,SystemResetWarning,0823.2,5.01,000.00,024.3,023.9,000.0,032.2,026.3,019.8,0000.0,0003.53,0009.36,0002.75
2024-05-17 02:08:00,SystemResetWarning,0823.1,5.00,000.00,024.4,024.1,000.0,032.2,026.4,019.5,0000.0,0003.54,0009.32,0002.76
2024-05-17 02:09:00,SystemResetWarning,0823.1,5.00,000.00,024.4,023.6,000.0,032.3,026.0,019.3,0000.0,0003.52,0009.53,0002.76
2024-05-17 02:10:00,SystemResetWarning,0823.0,5.00,000.00,024.1,021.8,000.0,032.4,025.1,019.6,0000.0,0003.53,0010.56,0002.75
2024-05-17 02:11:00,SystemResetWarning,0823.0,5.02,000.00,023.9,021.7,000.0,032.4,025.0,019.8,0000.0,0003.51,0011.15,0002.76
2024-05-17 02:12:00,SystemResetWarning,0823.1,4.99,000.00,023.9,022.0,000.0,032.3,025.1,020.0,0000.0,0003.47,0010.86,0002.75
2024-05-17 02:13:00,SystemResetWarning,0823.1,4.99,000.00,023.9,022.3,000.0,032.2,025.4,019.9,0000.0,0003.44,0011.28,0002.74
2024-05-17 02:14:00,SystemResetWarning,0823.2,5.00,000.00,024.0,022.7,000.0,032.2,025.6,019.9,0000.0,0003.40,0010.31,0002.74
2024-05-17 02:15:00,SystemResetWarning,0823.2,5.01,000.00,024.0,023.0,000.0,032.2,025.7,019.8,0000.0,0003.39,0011.01,0002.73
2024-05-17 02:16:00,SystemResetWarning,0823.2,5.00,000.00,024.1,023.2,000.0,032.2,025.9,019.7,0000.0,0003.42,0011.26,0002.73
2024-05-17 02:17:00,SystemResetWarning,0823.2,4.99,000.00,024.2,023.5,000.0,032.2,026.1,019.5,0000.0,0003.44,0011.83,0002.75
2024-05-17 02:18:00,SystemResetWarning,0823.3,5.00,000.00,024.3,023.7,000.0,032.2,026.2,019.7,0000.0,0003.44,0012.18,0002.74
2024-05-17 02:19:00,SystemResetWarning,0823.3,5.00,000.00,024.3,023.8,000.0,032.3,026.3,019.5,0000.0,0003.45,0012.56,0002.75
2024-05-17 02:20:00,SystemResetWarning,0823.3,5.00,000.00,024.4,024.0,000.0,032.3,026.4,019.4,0000.0,0003.46,0012.42,0002.75
2024-05-17 02:21:00,SystemResetWarning,0823.3,4.99,000.00,024.5,023.8,000.0,032.4,026.3,019.5,0000.0,0003.45,0011.70,0002.76
2024-05-17 02:22:00,SystemResetWarning,0823.3,5.00,000.00,024.2,022.1,000.0,032.5,025.3,019.8,0000.0,0003.45,0011.12,0002.75
2024-05-17 02:23:00,SystemResetWarning,0823.3,5.01,000.00,024.0,021.6,000.0,032.5,025.0,020.3,0000.0,0003.50,0011.92,0002.76
2024-05-17 02:24:00,SystemResetWarning,0823.3,5.01,000.00,023.9,021.9,000.0,032.4,025.1,020.4,0000.0,0003.53,0011.26,0002.78
2024-05-17 02:25:00,SystemResetWarning,0823.3,4.99,000.00,023.9,022.2,000.0,032.3,025.3,020.5,0000.0,0003.56,0010.82,0002.79
2024-05-17 02:26:00,SystemResetWarning,0823.3,4.99,000.00,024.0,022.6,000.0,032.3,025.6,020.6,0000.0,0003.57,0010.19,0002.81
2024-05-17 02:27:00,SystemResetWarning,0823.3,5.01,000.00,024.0,022.9,000.0,032.2,025.7,020.7,0000.0,0003.56,0010.24,0002.81
2024-05-17 02:28:00,SystemResetWarning,0823.4,5.01,000.00,024.1,023.2,000.0,032.3,025.9,020.5,0000.0,0003.54,0009.43,0002.82
2024-05-17 02:29:00,SystemResetWarning,0823.4,4.99,000.00,024.2,023.4,000.0,032.3,026.1,020.1,0000.0,0003.56,0009.17,0002.81
2024-05-17 02:30:00,SystemResetWarning,0823.4,5.00,000.00,024.3,023.6,000.0,032.3,026.2,019.8,0000.0,0003.58,0008.92,0002.83
2024-05-17 02:31:00,SystemResetWarning,0823.4,4.99,000.00,024.3,023.8,000.0,032.3,026.3,019.6,0000.0,0003.56,0009.31,0002.82
2024-05-17 02:32:00,SystemResetWarning,0823.4,5.00,000.00,024.4,023.9,000.0,032.3,026.3,019.4,0000.0,0003.53,0009.66,0002.82
2024-05-17 02:33:00,SystemResetWarning,0823.4,4.99,000.00,024.5,024.0,000.0,032.4,026.5,019.4,0000.0,0003.50,0010.09,0002.82
2024-05-17 02:34:00,SystemResetWarning,0823.4,5.00,000.00,024.6,024.1,000.0,032.4,026.5,019.3,0000.0,0003.49,0009.43,0002.81
2024-05-17 02:35:00,SystemResetWarning,0823.4,5.00,000.00,024.4,022.7,000.0,032.5,025.7,019.2,0000.0,0003.49,0009.57,0002.81
2024-05-17 02:36:00,SystemResetWarning,0823.3,5.01,000.00,024.1,021.5,000.0,032.6,025.0,019.6,0000.0,0003.49,0010.02,0002.81
2024-05-17 02:37:00,SystemResetWarning,0823.4,5.01,000.00,024.0,021.7,000.0,032.5,025.0,019.8,0000.0,0003.50,0010.13,0002.81
2024-05-17 02:38:00,SystemResetWarning,0823.4,4.99,000.00,023.9,022.0,000.0,032.4,025.2,019.6,0000.0,0003.50,0009.82,0002.82
2024-05-17 02:39:00,SystemResetWarning,0823.4,4.99,000.00,024.0,022.4,000.0,032.3,025.5,019.6,0000.0,0003.50,0009.78,0002.81
2024-05-17 02:40:00,SystemResetWarning,0823.4,5.02,000.00,024.0,022.7,000.0,032.3,025.7,019.2,0000.0,0003.47,0010.27,0002.81
2024-05-17 02:41:00,SystemResetWarning,0823.4,5.00,000.00,024.1,023.0,000.0,032.3,025.9,019.3,0000.0,0003.46,0010.17,0002.78
2024-05-17 02:42:00,SystemResetWarning,0823.4,5.00,000.00,024.2,023.2,000.0,032.3,026.0,019.5,0000.0,0003.47,0009.73,0002.79
2024-05-17 02:43:00,SystemResetWarning,0823.4,4.99,000.00,024.2,023.5,000.0,032.3,026.1,020.9,0000.0,0003.51,0009.61,0002.80
2024-05-17 02:44:00,SystemResetWarning,0823.4,5.00,000.00,024.3,023.6,000.0,032.3,026.2,021.8,0000.0,0003.55,0009.26,0002.82
2024-05-17 02:45:00,SystemResetWarning,0823.4,5.00,000.00,024.4,023.8,000.0,032.4,026.3,022.0,0000.0,0003.53,0010.25,0002.83
2024-05-17 02:46:00,SystemResetWarning,0823.4,5.00,000.00,024.5,023.9,000.0,032.4,026.4,022.2,0000.0,0003.53,0010.93,0002.84
2024-05-17 02:47:00,SystemResetWarning,0823.4,5.00,000.00,024.5,024.1,000.0,032.4,026.5,021.5,0000.0,0003.55,0011.24,0002.86
2024-05-17 02:48:00,SystemResetWarning,0823.4,5.00,000.00,024.6,024.2,000.0,032.5,026.6,022.0,0000.0,0003.55,0011.08,0002.85
2024-05-17 02:49:00,SystemResetWarning,0823.4,4.99,000.00,024.6,023.5,000.0,032.6,026.2,021.9,0000.0,0003.52,0010.95,0002.84
2024-05-17 02:50:00,SystemResetWarning,0823.5,5.01,000.00,024.3,021.7,000.0,032.6,025.2,022.7,0000.0,0003.52,0011.45,0002.86
2024-05-17 02:51:00,SystemResetWarning,0823.4,5.02,000.00,024.0,021.6,000.0,032.6,025.0,021.8,0000.0,0003.58,0011.03,0002.88
2024-05-17 02:52:00,SystemResetWarning,0823.4,5.00,000.00,024.0,021.9,000.0,032.5,025.2,022.6,0000.0,0003.60,0010.94,0002.90
2024-05-17 02:53:00,SystemResetWarning,0823.4,4.99,000.00,024.0,022.3,000.0,032.4,025.4,023.0,0000.0,0003.61,0010.90,0002.92
2024-05-17 02:54:00,SystemResetWarning,0823.5,5.00,000.00,024.0,022.6,000.0,032.4,025.6,022.6,0000.0,0003.60,0010.65,0002.92
2024-05-17 02:55:00,SystemResetWarning,0823.5,5.01,000.00,024.1,022.9,000.0,032.4,025.8,022.7,0000.0,0003.63,0011.23,0002.93
2024-05-17 02:56:00,SystemResetWarning,0823.5,5.01,000.00,024.2,023.2,000.0,032.3,026.0,021.6,0000.0,0003.66,0010.37,0002.93
2024-05-17 02:57:00,SystemResetWarning,0823.5,5.01,000.00,024.2,023.4,000.0,032.3,026.1,020.9,0000.0,0003.69,0010.05,0002.93
2024-05-17 02:58:00,SystemResetWarning,0823.6,5.00,000.00,024.3,023.6,000.0,032.4,026.2,020.7,0000.0,0003.68,0009.50,0002.92
2024-05-17 02:59:00,SystemResetWarning,0823.6,4.99,000.00,024.4,023.8,000.0,032.4,026.3,021.1,0000.0,0003.69,0009.56,0002.91
